Location: Francheville
(48.6833°N, 0.4500°E)
Time: 04:13:32
(UTC+00:00)

Daily predictions for brighter satellites

Satellite Brightness Start Highest point End
(mag) Time Altitude Azimuth Time Altitude Azimuth Time Altitude Azimuth
Cosmos 2360 Rocket 4.5 02:00:10 20° NE 02:00:10 20° NE 02:02:00 10° NE
USA 234 4.1 02:17:47 10° E 02:22:13 44° E 02:22:13 44° E
ADEOS II 4.2 02:20:12 10° NNE 02:22:03 22° NNE 02:22:03 22° NNE
ATLAS 3B R/B 3.9 02:30:07 32° N 02:31:35 35° NNE 02:37:44 10° E
Cosmos 2278 Rocket 3.9 02:33:22 24° NNE 02:35:13 29° NE 02:40:05 10° ESE
COSMOS 2455 3.9 02:40:32 41° ENE 02:40:32 41° ENE 02:44:43 10° NE
CENTAUR R/B 3.8 02:39:09 28° NNW 02:43:01 48° NE 02:51:12 10° ESE
Cosmos 2333 Rocket 3.7 02:44:01 31° E 02:44:01 31° E 02:48:32 10° NE
IDEFIX/ARIANE 42P 4.4 02:52:08 10° NE 02:56:34 27° E 02:58:15 23° ESE
ATLAS 2AS CENTAUR R/B 4.2 02:54:25 27° SSE 02:57:37 36° ESE 03:04:45 10° NE
USA 238 DEB 3.9 03:01:10 66° SE 03:01:10 66° SE 03:07:24 10° SE
USA 238 3.9 03:01:13 67° SE 03:01:13 67° SE 03:07:29 10° SE
SL-16 R/B 3.8 03:03:14 25° N 03:03:14 25° N 03:05:59 10° NNE
Cosmos 2322 4.3 03:06:51 54° NE 03:06:51 54° NE 03:11:16 10° NNE
Cosmos 2251 Rocket 4.4 03:07:08 47° NE 03:07:08 47° NE 03:11:04 10° NNE
Cosmos 2219 Rocket 2.9 03:08:18 47° ESE 03:08:18 47° ESE 03:13:28 10° NE
Cosmos 2098 Rocket 4.2 03:13:37 83° WNW 03:13:37 83° WNW 03:20:56 10° N
Cosmos 2237 Rocket 4.2 03:14:23 12° SSE 03:18:26 24° ESE 03:22:55 10° NE
NOSS 3-2 (A) 3.9 03:23:04 58° NW 03:24:50 82° SW 03:33:12 10° SSE
Cosmos 2181 Rocket 4.1 03:23:42 10° N 03:30:07 77° E 03:36:22 10° SSE
Cosmos 292 Rocket 4.3 03:30:33 55° NE 03:30:42 55° ENE 03:35:25 10° SE
Cosmos 44 4.2 03:32:06 40° E 03:32:06 40° E 03:35:07 10° SE
Cosmos 2322 Rocket 3.7 03:33:00 24° NNW 03:33:00 24° NNW 03:36:10 10° NNE
USA 267 3.1 03:25:29 10° NE 03:32:04 85° SE 03:32:58 69° SW
COSMOS 2428 2.7 03:33:55 71° SSE 03:34:16 74° ESE 03:39:57 10° NNE
Cosmos 1536 Rocket 4.3 03:36:16 49° ENE 03:36:16 49° ENE 03:40:01 10° NNE
Resurs 1-4 Rocket 4.4 03:33:11 10° NNW 03:33:44 12° NNW 03:33:44 12° NNW
Cosmos 2360 Rocket 3.0 03:41:57 37° NNW 03:41:57 37° NNW 03:46:09 10° NNE
Cosmos 1470 3.8 03:43:40 10° N 03:47:28 45° ENE 03:51:12 10° SSE
Cosmos 1980 Rocket 4.4 03:48:21 11° NNW 03:48:21 11° NNW 03:49:59 10° N
NOSS 3-2 (C) 3.9 03:44:17 28° NW 03:48:49 84° SW 03:57:12 10° SE
CBERS 1 LM4 rocket 4.3 03:44:41 10° NNE 03:49:50 85° WNW 03:49:50 85° WNW
ADEOS 3.7 03:44:42 10° NNE 03:49:57 71° ESE 03:52:06 36° S
ARIANE 5 R/B 4.1 03:52:16 10° N 03:54:18 20° NNW 03:54:18 20° NNW
USA 32 4.4 03:51:38 10° S 03:56:47 62° E 04:01:58 10° NNE
ADEOS II 3.6 04:00:30 10° N 04:02:59 21° NNW 04:02:59 21° NNW
USA 234 3.2 04:00:49 10° SE 04:07:15 60° SW 04:09:35 40° W
NOSS 3-4 (A) 4.0 04:03:38 20° SSW 04:07:40 54° ESE 04:13:52 10° NE
NOSS 3-4 (C) 4.1 04:03:39 20° SSW 04:07:47 53° ESE 04:13:57 10° NE
NOSS 2-2 (D) 3.4 04:09:57 61° N 04:09:57 61° N 04:13:54 10° NE
SL-16 R/B 4.4 04:07:07 10° SSE 04:11:36 25° ESE 04:16:06 10° NE
Cosmos 1140 Rocket 4.4 04:13:56 10° S 04:18:52 47° ESE 04:23:49 10° NNE
H-2A R/B 2.4 04:15:06 10° NNE 04:19:16 84° ESE 04:21:56 23° SSW
Cosmos 2278 Rocket 2.1 04:15:25 17° NW 04:19:43 62° WSW 04:25:17 10° SSE
Cosmos 389 Rocket 3.2 04:17:48 19° SSE 04:20:02 50° E 04:23:24 10° NNE
Cosmos 614 Rocket 4.2 04:16:45 13° SSW 04:21:25 71° ESE 04:26:37 10° NNE
PAYLOAD A 4.0 04:17:47 10° NNE 04:22:37 75° ESE 04:27:36 10° S
ATLAS 3B R/B 2.5 04:17:26 16° NW 04:22:53 79° SW 04:29:44 10° SSE
COSMOS 2455 3.5 04:23:42 34° WNW 04:25:01 38° NW 04:30:38 10° NNE
Cosmos 2333 Rocket 2.4 04:26:04 39° W 04:27:38 49° NW 04:33:11 10° NNE
Cosmos 1709 Rocket 4.5 04:28:03 34° W 04:29:30 38° WNW 04:35:24 10° N
CENTAUR R/B 3.1 04:26:23 10° NW 04:34:17 67° SW 04:42:50 10° SSE
Cosmos 2184 Rocket 3.9 04:28:21 10° SSW 04:34:34 81° W 04:40:55 10° N
IDEFIX/ARIANE 42P 2.8 04:31:21 10° N 04:36:24 48° WNW 04:39:04 26° SW
COSMO-SKYMED 1 3.7 04:32:26 10° SE 04:36:34 44° ENE 04:40:43 10° N
Cosmos 1356 4.2 04:36:48 10° N 04:40:13 54° ENE 04:43:36 10° SSE
Aureole 1 Rocket 4.1 04:39:29 30° W 04:41:14 38° WNW 04:45:41 10° N
Gblst 52 Del rocket 4.2 04:38:15 28° WNW 04:41:17 82° NNE 04:47:10 10° ESE
Nadezhda 3 Rocket 4.1 04:35:51 10° N 04:42:17 87° E 04:48:38 10° S
Meteor 1-21 4.3 04:39:09 16° SW 04:43:26 50° WNW 04:48:57 10° N
COSMOS 2441 4.3 04:39:15 10° N 04:44:08 63° WNW 04:48:57 10° SSW
NOSS 2-2 (C) 4.1 04:45:32 32° WNW 04:46:24 36° NW 04:50:32 10° NNE
Cosmos 1726 Rocket 3.5 04:42:07 10° N 04:46:28 82° E 04:50:47 10° SSE
Cosmos 2228 2.9 04:42:12 10° N 04:46:30 86° E 04:50:44 10° S
SL-16 R/B 4.2 04:45:07 11° NW 04:46:32 12° NNW 04:48:32 10° N
ATLAS 2AS CENTAUR R/B 3.1 04:41:55 18° SW 04:48:14 72° NW 04:56:17 10° NE
PSLV R/B 4.2 04:44:41 10° N 04:48:28 32° WNW 04:49:04 31° W
NOSS 0 Rocket 3.9 04:43:39 16° SW 04:48:43 68° WNW 04:54:56 10° NNE
Cosmos 1025 Rocket 3.7 04:49:16 31° W 04:49:47 32° WNW 04:53:40 10° N
CZ-4B R/B 2.8 04:46:44 10° NNE 04:50:49 90° ENE 04:54:41 10° SSW
Cosmos 2219 Rocket 2.9 04:50:04 26° W 04:52:14 34° NW 04:57:20 10° NNE
Cosmos 1023 Rocket 4.4 04:47:51 10° SSW 04:53:02 90° WNW 04:58:13 10° NNE
BREEZE-M R/B 4.3 04:51:56 25° W 04:55:23 83° N 05:06:58 10° E
ALOS 4.2 04:52:16 10° NNE 04:56:29 33° E 05:00:41 10° SSE
Cosmos 1953 2.4 04:52:58 10° NNW 04:56:54 50° W 05:00:46 10° S
Meteor PRIRODA 3.8 04:53:49 10° NNE 04:57:35 75° ESE 05:01:19 10° S
Okean O Rocket 3.6 04:55:33 10° NNE 04:59:33 33° E 05:03:30 10° SSE
ERBS 2.6 04:59:56 31° W 05:01:12 50° NNW 05:04:31 10° NE
Cosmos 2237 Rocket 2.2 04:56:25 10° SW 05:02:02 63° WNW 05:07:44 10° NNE
Cosmos 1758 4.3 05:02:06 10° NW 05:05:23 24° W 05:08:40 10° SW
Cosmos 2058 Rocket 3.1 05:01:13 10° N 05:05:39 85° E 05:10:05 10° S
Cosmos 676 Rocket 4.0 05:01:17 10° SSW 05:06:34 90° W 05:11:51 10° NNE
Cosmos 2074 Rocket 4.2 05:00:48 10° SSW 05:06:46 47° WNW 05:12:46 10° N
In-Cosmos 22 4.2 05:01:45 10° S 05:07:05 81° E 05:12:36 10° NNE
Meteor 2-10 4.0 05:02:13 10° NNW 05:07:25 87° WSW 05:12:45 10° S
MSX 4.2 05:02:51 10° N 05:08:15 43° WNW 05:13:36 10° SW
Cosmos 1908 3.8 05:05:06 10° N 05:08:55 58° ENE 05:12:41 10° SSE
CZ-2C R/B 2.6 05:04:33 10° N 05:09:38 54° WNW 05:14:39 10° SW
Cosmos 44 4.2 05:10:36 20° W 05:11:44 22° WSW 05:15:03 10° SSW
USA 267 3.7 05:08:35 10° ENE 05:14:51 51° NNW 05:20:19 14° W
Cosmos 1295 Rocket 4.4 05:08:46 10° S 05:14:58 84° W 05:21:08 10° N
COBE Rocket 3.9 05:10:01 10° S 05:15:02 75° WSW 05:20:14 10° NNW
Cosmos 2369 Rocket 3.4 05:10:06 10° NNW 05:15:26 42° NE 05:20:43 10° SE
Meteor 1-31 Rocket 3.0 05:12:13 10° N 05:15:53 44° WNW 05:19:29 10° SW
Cosmos 1190 Rocket 4.2 05:11:27 10° SW 05:16:34 49° WNW 05:21:43 10° NNE
Helios 1A Rocket 3.8 05:12:38 10° NNE 05:16:44 53° E 05:20:48 10° S
Cosmos 407 Rocket 3.8 05:12:34 10° SW 05:17:27 43° WNW 05:22:21 10° NNE
COSMOS 2428 3.8 05:15:58 16° W 05:19:07 25° NW 05:23:47 10° N
Cosmos 44 Rocket 3.1 05:14:38 10° NW 05:19:23 76° SW 05:24:03 10° SSE
Cosmos 1980 4.0 05:14:00 10° SW 05:19:25 45° NW 05:24:51 10° NNE
Cosmos 1470 4.3 05:20:41 10° NW 05:23:09 16° W 05:25:36 10° SW
Cosmos 1707 3.6 05:19:45 10° SW 05:23:13 29° WNW 05:26:41 10° N
CZ-4B R/B 4.0 05:18:32 10° NNE 05:23:45 54° E 05:28:55 10° S
SKYMED 2 3.6 05:20:16 10° S 05:24:33 62° WSW 05:28:54 10° NNW
Cosmos 2360 Rocket 4.1 05:24:14 10° NW 05:26:28 12° NNW 05:28:42 10° N
RESURS DK-1 2.3 05:24:23 10° SSW 05:28:30 83° WNW 05:32:41 10° NNE
MOS 1-B 4.3 05:24:40 10° NNE 05:30:31 82° WNW 05:36:20 10° SSW
Cosmos 1726 2.3 05:28:18 10° NNW 05:31:51 47° W 05:35:22 10° S
Cosmos 1484 Rocket 2.7 05:28:44 10° N 05:32:29 63° WNW 05:36:16 10° SSW
Cosmos 1892 Rocket 3.7 05:28:35 10° SSW 05:32:54 52° WNW 05:37:14 10° N
BREEZE-M DEB (TANK) 1.6 05:32:13 12° W 05:35:42 73° N 05:37:54 10° E
Meteor 1-4 Rocket 3.5 05:34:58 10° SW 05:37:55 25° WNW 05:40:53 10° NNW
SJ-12 3.9 05:34:40 10° N 05:38:46 74° WNW 05:42:52 10° SSW
GP-B 3.5 05:37:31 10° SSW 05:41:42 40° W 05:45:55 10° NNW
Cosmos 1850 Rocket 4.2 05:39:34 10° SSW 05:44:45 78° ESE 05:49:57 10° NNE
Cosmos 1674 2.6 05:43:11 10° SSW 05:46:52 61° WNW 05:50:34 10° N
Meteor 1-24 Rocket 4.0 05:41:46 10° S 05:47:31 81° E 05:53:30 10° NNE
Cosmos 1943 Rocket 2.4 05:43:29 10° NNW 05:49:11 79° ENE 05:54:52 10° SSE
FENGYUN 3A 3.7 05:46:43 10° NNE 05:52:12 87° WNW 05:57:39 10° SSW
H-2A R/B 4.3 05:52:18 10° NNW 05:54:13 13° WNW 05:56:09 10° W
Cosmos 1954 Rocket 4.4 05:49:31 10° SW 05:54:29 42° WNW 05:59:26 10° NNE
SL-16 R/B 2.3 05:49:41 10° SW 05:55:17 61° WNW 06:00:56 10° NNE
